FW2611 Weather Reports


time (UTC)temp
C
wind
direction
speed
KPH
gust
KPH
rain 1hr
cm
rain 24hr
cm
rain mn
cm
humidity
%
barometer
mb
20260506140014 15 230 17.7 27.4 0.00 0.00 0.00 83 1012.4
20260506134513 15 202 14.5 29.0 0.00 0.00 0.00 84 1012.5
20260506133009 15 208 11.3 27.4 0.00 0.00 0.00 83 1012.7
20260506131516 15 240 16.1 30.6 0.00 0.00 0.00 83 1012.9
20260506130012 15 191 16.1 29.0 0.00 0.00 0.00 84 1012.9
20260506124516 15 200 14.5 30.6 0.00 0.00 0.00 85 1012.8
20260506123016 14 204 14.5 37.0 0.00 0.00 0.00 86 1012.8
20260506121513 14 219 19.3 43.5 0.00 0.00 0.00 86 1012.8
20260506120019 14 227 14.5 29.0 0.00 0.00 0.00 86 1012.5
20260506114517 14 195 11.3 30.6 0.00 0.00 0.00 88 1012.6
20260506113018 13 168 11.3 29.0 0.00 0.00 0.00 88 1012.5
20260506111521 13 229 12.9 29.0 0.00 0.00 0.00 89 1012.6
20260506110015 13 201 14.5 27.4 0.00 0.00 0.00 89 1012.6
20260506104518 13 205 14.5 32.2 0.00 0.00 0.00 89 1012.7
20260506103021 13 205 14.5 27.4 0.00 0.00 0.00 89 1012.5
20260506101533 13 200 17.7 30.6 0.00 0.00 0.00 89 1012.4
20260506100023 13 196 17.7 32.2 0.00 0.00 0.00 89 1012.4
20260506094526 13 178 14.5 32.2 0.00 0.00 0.00 89 1012.2
20260506093033 13 198 14.5 32.2 0.00 0.00 0.00 89 1012.2
20260506091525 13 207 12.9 30.6 0.00 0.00 0.00 89 1012.5
20260506090011 13 198 16.1 27.4 0.00 0.00 0.00 89 1012.7
20260506084516 13 204 14.5 30.6 0.00 0.00 0.00 89 1012.8
20260506083022 13 215 11.3 25.7 0.00 0.00 0.00 89 1012.9
20260506081532 13 215 12.9 29.0 0.00 0.00 0.00 89 1012.8
20260506073033 13 202 11.3 30.6 0.00 0.00 0.00 88 1012.8
20260506071524 13 220 16.1 33.8 0.00 0.00 0.00 88 1013.0
20260506061520 13 191 14.5 35.4 0.00 0.00 0.00 86 1013.0
20260506044551 14 213 19.3 35.4 0.00 0.00 0.00 84 1013.6
20260506043026 14 207 19.3 33.8 0.00 0.00 0.00 84 1013.5
20260506041516 14 184 16.1 38.6 0.00 0.00 0.00 83 1013.6
20260506040017 14 190 16.1 35.4 0.00 0.00 0.00 83 1013.5
20260506034543 14 202 16.1 32.2 0.00 0.00 0.00 83 1013.5
20260506031528 14 198 14.5 30.6 0.00 0.00 0.00 83 1013.7
20260506030028 14 225 14.5 32.2 0.00 0.00 0.00 83 1013.7
20260506024520 14 192 17.7 27.4 0.00 0.00 0.00 83 1013.7
20260506023025 14 227 12.9 32.2 0.00 0.00 0.00 83 1013.7
20260506021525 14 146 16.1 32.2 0.00 0.00 0.00 82 1013.7
20260506020010 14 208 12.9 37.0 0.00 0.00 0.00 82 1013.7
20260506014520 14 217 14.5 29.0 0.00 0.00 0.00 82 1013.6
20260506013019 14 153 16.1 32.2 0.00 0.00 0.00 82 1013.4
20260506011507 14 210 12.9 29.0 0.00 0.00 0.00 82 1013.4
20260506010012 13 191 16.1 30.6 0.00 0.00 0.00 83 1013.3
20260506004529 14 196 12.9 30.6 0.00 0.00 0.00 83 1013.2
20260506003035 14 196 14.5 32.2 0.00 0.00 0.00 82 1013.1
20260506001523 14 224 12.9 33.8 0.00 0.00 0.00 82 1012.9
20260506000005 14 217 14.5 30.6 0.00 0.00 0.00 80 1012.8
20260505234510 15 188 17.7 35.4 0.00 0.00 0.00 80 1012.8
20260505233012 15 189 19.3 33.8 0.00 0.00 0.00 78 1012.7
20260505231521 16 192 17.7 33.8 0.00 0.00 0.00 75 1012.6
20260505230021 16 214 17.7 43.5 0.00 0.00 0.00 71 1012.5
20260505224508 17 225 17.7 37.0 0.00 0.00 0.00 70 1012.4
20260505223010 17 194 17.7 37.0 0.00 0.00 0.00 69 1012.2
20260505221519 17 186 16.1 35.4 0.00 0.00 0.00 68 1012.3
20260505220027 17 212 19.3 35.4 0.00 0.00 0.00 67 1012.1
20260505214529 17 200 19.3 46.7 0.00 0.00 0.00 67 1011.9
20260505213008 17 198 19.3 40.2 0.00 0.00 0.00 67 1011.9
20260505211514 17 206 20.9 38.6 0.00 0.00 0.00 67 1011.9
20260505210019 18 257 20.9 46.7 0.00 0.00 0.00 67 1012.0
20260505204523 18 201 16.1 38.6 0.00 0.00 0.00 66 1011.8
20260505203025 18 215 17.7 37.0 0.00 0.00 0.00 66 1011.8
20260505201526 18 198 20.9 38.6 0.00 0.00 0.00 66 1012.0
20260505200015 18 194 19.3 41.8 0.00 0.00 0.00 66 1012.1
20260505194531 18 205 19.3 32.2 0.00 0.00 0.00 66 1012.4
20260505193036 18 158 16.1 32.2 0.00 0.00 0.00 66 1012.6
20260505191534 18 190 12.9 29.0 0.00 0.00 0.00 67 1012.7
20260505190012 18 203 11.3 29.0 0.00 0.00 0.00 66 1012.9
20260505184516 18 207 9.7 24.1 0.00 0.00 0.00 66 1013.0
20260505183015 18 159 8.0 24.1 0.00 0.00 0.00 67 1013.0
20260505181504 17 212 11.3 30.6 0.00 0.00 0.00 68 1013.2
20260505180010 18 206 12.9 25.7 0.00 0.00 0.00 68 1013.4
20260505174523 17 189 11.3 29.0 0.00 0.00 0.00 69 1013.4
20260505173020 17 243 12.9 30.6 0.00 0.00 0.00 69 1013.5
20260505171504 17 223 11.3 25.7 0.00 0.00 0.00 69 1013.4
20260505170016 17 207 9.7 25.7 0.00 0.00 0.00 70 1013.4
20260505164516 17 175 11.3 24.1 0.00 0.00 0.00 71 1013.3
20260505163020 17 200 9.7 24.1 0.00 0.00 0.00 71 1013.6
20260505161519 17 203 8.0 22.5 0.00 0.00 0.00 72 1013.6
20260505153012 16 186 16.1 27.4 0.00 0.00 0.00 75 1013.8
20260505151519 16 193 6.4 24.1 0.00 0.00 0.00 75 1013.7